Flag for Philippines Weather past 2 weeks in Olongapo, Philippines

Now
91 °F

Passing clouds.


Feels Like: 105 °F
Forecast: 80 / 91 °F
Wind: 12 mph from Southwest

Location: Subic Bay Weather Station

Current Time: May 25, 2015 at 1:28:52 PM

Latest Report: May 25, 2015 at 1:00 PM


Visibility: N/A

Pressure: 29.80 "Hg

Humidity: 63%

Dew point: 77 °F

Location of OlongapoLocation

Historic Weather in Olongapo — Graph

°F

Olongapo temperature yesterday

Maximum temperature yesterday: 91 °F (at 12:00 PM)
Minimum temperature yesterday: 79 °F (at 4:00 AM)
Average temperature yesterday: 85 °F

Past Weeks' High & Low Weather Summary

 TemperatureHumidityPressure
High97 °F (May 13, 3:00 PM)89% (May 11, 3:00 AM)29.92 "Hg (May 11, 3:00 AM)
Low73 °F (May 20, 5:00 AM)34% (May 13, 3:00 PM)29.71 "Hg (May 10, 3:00 PM)
Average85 °F69%29.82 "Hg
* Reported May 10 12:00 Noon — May 25 12:00 Noon, Olongapo, Weather by CustomWeather, © 2015

Note: Actual official high and low records may vary slightly from our data, if they occured in-between our weather recording intervals... More about our weather records

Advertising

Olongapo weather history for previous 24 hours

 ConditionsComfort  
Time TempWeatherWind HumidityBarometerVisibility
12:00 PM
Mon, May 25
91 °FScattered clouds.12 mph59%29.80 "HgN/A
11:00 AM91 °FScattered clouds.9 mph59%29.83 "HgN/A
10:00 AM90 °FScattered clouds.8 mph63%29.83 "HgN/A
9:00 AM88 °FPartly sunny.2 mph66%29.83 "HgN/A
8:00 AM86 °FPartly sunny.2 mph70%29.83 "HgN/A
7:00 AM81 °FPartly sunny.5 mph84%29.80 "HgN/A
6:00 AM79 °FPartly sunny.5 mph84%29.80 "HgN/A
5:00 AM77 °FPassing clouds.5 mph89%29.80 "HgN/A
2:00 AM81 °FPassing clouds.1 mph84%29.80 "HgN/A
1:00 AM79 °FPassing clouds.5 mph89%29.83 "HgN/A
12:00 AM81 °FPassing clouds.1 mph84%29.83 "HgN/A
11:00 PM
Sun, May 24
82 °FPassing clouds.2 mph84%29.86 "HgN/A
10:00 PM82 °FPassing clouds.1 mph79%29.86 "HgN/A
9:00 PM84 °FPassing clouds.1 mph74%29.83 "HgN/A
8:00 PM84 °FPassing clouds.1 mph74%29.83 "HgN/A
7:00 PM86 °FPassing clouds.5 mph75%29.80 "HgN/A
6:00 PM86 °FPartly sunny.8 mph75%29.80 "HgN/A
5:00 PM88 °FBroken clouds.10 mph70%29.77 "HgN/A
4:00 PM86 °FScattered showers. Partly sunny.12 mph75%29.77 "HgN/A
3:00 PM88 °FBroken clouds.15 mph66%29.77 "HgN/A
2:00 PM91 °FPartly sunny.14 mph63%29.77 "HgN/A
1:00 PM91 °FPartly sunny.13 mph59%29.80 "HgN/A
Weather by CustomWeather, © 2015

See weather overviewHow to use our weather pages